[[{"header":{"parameterUnit":"m.s-1","parameterCategory":1,"la1":30.2991,"la2":30.254,"lo1":-89.0895,"lo2":-89.0444,"dx":0.0017,"dy":0.0017,"nx":28,"ny":28,"refTime":"2022-11-03T21:00:00:Z","depth":0,"parameterNumber":2,"parameterNumberName":"U-component_of_WINDS"},"data":[0,0,0,0,0,0,0,0,0,0,0,0,0,0,0,0,0,0,0,0,0,0,0,0,0,0,0,0,0,0,0,0,0,0,0,0,0,0,0,0,0,0,0,0,0,0,0,0,0,0,0,0,0,0,0,0,0,0,-0.2769,-0.2769,0,-0.2784,-0.2784,-0.2784,-0.2784,-0.2783,-0.2783,-0.2783,-0.28,-0.28,-0.2801,0,0,0,0,0,0,0,0,0,0,0,0,0,-0.2741,-0.2741,-0.2769,-0.2769,-0.2769,-0.2784,-0.2784,-0.2784,-0.2784,-0.2783,-0.2783,-0.2783,-0.28,-0.28,-0.2801,0,0,0,0,0,0,0,0,0,0,0,0,0,-0.2754,-0.2741,-0.2769,-0.2771,-0.2771,-0.2783,-0.2784,-0.2784,-0.2784,-0.2783,-0.2783,-0.2783,-0.2799,-0.28,-0.2801,-0.2813,0,0,-0.2804,-0.2805,0,0,0,0,0,0,0,0,-0.2753,-0.2755,-0.277,-0.277,-0.2771,-0.2781,-0.278,-0.2794,-0.2784,-0.2779,-0.2783,-0.2783,-0.2794,-0.2795,-0.2799,-0.2814,-0.2815,-0.2804,-0.2805,-0.2805,-0.2805,0,0,0,0,0,0,0,-0.2752,-0.2754,-0.2775,-0.277,-0.2771,-0.2771,-0.2773,-0.2783,-0.2788,-0.2779,-0.2779,-0.2781,-0.2794,-0.2798,-0.2799,-0.2815,-0.2804,-0.2805,-0.2806,-0.2806,-0.284,-0.284,0,0,0,0,0,0,-0.2751,-0.2754,-0.2774,-0.2775,-0.2761,-0.2772,-0.2773,-0.2778,-0.2788,-0.2789,-0.2781,-0.2781,-0.2797,-0.2798,-0.28,-0.2814,-0.2805,-0.2806,-0.2807,-0.2839,-0.284,-0.284,0,0,0,0,0,0,-0.275,-0.2753,-0.2773,-0.2764,-0.2767,-0.2773,-0.2778,-0.2779,-0.2783,-0.2789,-0.279,-0.2784,-0.2796,-0.2799,-0.281,-0.2815,-0.2807,-0.2807,-0.2839,-0.284,-0.284,-0.2842,0,0,0,0,0,0,-0.2749,-0.2752,-0.2757,-0.2764,-0.2767,-0.2783,-0.2778,-0.2779,-0.2784,-0.2784,-0.2792,-0.2793,-0.2796,-0.2808,-0.2811,-0.2816,-0.2808,-0.2839,-0.2839,-0.284,-0.2842,-0.2843,-0.2844,0,0,0,0,0,-0.2748,-0.2758,-0.2757,-0.276,-0.2773,-0.2783,-0.2785,-0.2787,-0.2784,-0.2789,-0.2793,-0.2793,-0.2814,-0.2809,-0.2812,-0.2817,-0.2838,-0.2839,-0.284,-0.2842,-0.2843,-0.2844,0,0,0,0,0,0,-0.2751,-0.2759,-0.2758,-0.277,-0.2776,-0.2783,-0.2789,-0.2789,-0.2796,-0.2796,-0.2799,-0.2801,-0.2812,-0.2816,-0.2811,-0.2829,-0.2826,-0.2827,-0.2826,-0.2827,-0.2828,-0.2827,-0.2809,0,0,0,0,0,-0.2753,-0.276,-0.2766,-0.2776,-0.2779,-0.2783,-0.2788,-0.2789,-0.2796,-0.2798,-0.2803,-0.281,-0.2818,-0.2823,-0.283,-0.2843,-0.2844,-0.2848,-0.2849,-0.2849,-0.285,-0.2856,-0.2858,-0.2843,-0.2843,-0.2843,0,0,-0.2757,-0.2762,-0.2767,-0.2777,-0.2781,-0.2789,-0.2786,-0.2794,-0.2799,-0.28,-0.281,-0.2814,-0.2821,-0.2833,-0.2838,-0.2837,-0.2855,-0.285,-0.2851,-0.2851,-0.2857,-0.2859,-0.286,-0.2843,-0.2843,-0.2843,0,0,-0.2769,-0.2773,-0.2781,-0.2786,-0.2793,-0.2795,-0.2797,-0.2804,-0.2807,-0.2817,-0.2817,-0.2824,-0.2838,-0.2842,-0.2847,-0.2859,-0.2859,-0.2861,-0.2866,-0.2872,-0.2873,-0.2874,-0.2878,-0.2879,-0.2862,-0.2862,-0.2862,0,-0.2773,-0.2784,-0.2786,-0.2793,-0.2798,-0.2798,-0.2806,-0.2811,-0.282,-0.2823,-0.2821,-0.2837,-0.2842,-0.2854,-0.2857,-0.2861,-0.2863,-0.286,-0.2873,-0.2874,-0.2875,-0.2878,-0.288,-0.2863,-0.2863,-0.2863,-0.2863,0,-0.2789,-0.2796,-0.2802,-0.281,-0.2815,-0.2823,-0.2826,-0.2831,-0.2832,-0.2835,-0.2845,-0.2851,-0.2859,-0.2862,-0.2864,-0.2875,-0.2873,-0.2872,-0.2868,-0.2876,-0.288,-0.2881,-0.2863,-0.2863,-0.2863,-0.2863,0,0,-0.2802,-0.2811,-0.2813,-0.2816,-0.2823,-0.2829,-0.2837,-0.2844,-0.2848,-0.2854,-0.2861,-0.2872,-0.287,-0.2875,-0.2877,-0.2882,-0.2891,-0.288,-0.288,-0.2881,-0.2902,-0.2903,-0.2904,-0.2891,-0.2891,-0.2891,-0.2901,0,-0.2814,-0.2827,-0.2829,-0.2841,-0.2848,-0.2847,-0.2854,-0.2859,-0.2862,-0.2868,-0.2872,-0.2879,-0.2877,-0.288,-0.2885,-0.2888,-0.2895,-0.2888,-0.2897,-0.2897,-0.2894,-0.2906,-0.2907,-0.2916,-0.2903,-0.2903,-0.2903,0,-0.2829,-0.2835,-0.2847,-0.2853,-0.2855,-0.2861,-0.2868,-0.2874,-0.288,-0.2881,-0.2886,-0.2887,-0.2895,-0.2891,-0.2902,-0.2898,-0.2901,-0.2904,-0.2904,-0.2905,-0.29,-0.2907,-0.292,-0.2921,-0.2905,-0.2905,-0.2905,0,-0.2837,-0.2848,-0.2857,-0.2859,-0.2866,-0.287,-0.2873,-0.2879,-0.2883,-0.2889,-0.2891,-0.2898,-0.2902,-0.2908,-0.291,-0.2907,-0.2921,-0.2917,-0.2922,-0.2922,-0.2925,-0.2925,-0.2938,-0.2928,-0.2928,-0.2928,-0.2928,0,-0.285,-0.2857,-0.286,-0.2865,-0.2874,-0.2875,-0.2884,-0.2887,-0.2891,-0.2897,-0.2898,-0.2903,-0.2907,-0.2913,-0.2915,-0.2923,-0.2925,-0.2926,-0.2927,-0.2926,-0.2926,-0.2928,-0.2928,-0.2928,-0.2928,-0.2928,-0.2928,0,-0.286,-0.2862,-0.2871,-0.2877,-0.2878,-0.2884,-0.2888,-0.2894,-0.2896,-0.2903,-0.2905,-0.2909,-0.2916,-0.2919,-0.2928,-0.293,-0.2939,-0.2939,-0.2937,-0.2937,-0.2942,-0.2941,-0.2957,-0.2959,-0.2948,-0.2948,-0.2948,0,-0.2867,-0.2873,-0.2879,-0.2882,-0.2885,-0.2891,-0.2895,-0.2897,-0.2901,-0.2908,-0.2912,-0.2919,-0.2924,-0.2935,-0.2939,-0.2946,-0.2946,-0.2951,-0.2947,-0.2946,-0.2945,-0.2945,-0.2945,-0.2952,-0.2952,-0.2952,-0.2952,0,-0.288,-0.2881,-0.2887,-0.2892,-0.2897,-0.2901,-0.2906,-0.2909,-0.2912,-0.2916,-0.2923,-0.2927,-0.2936,-0.2943,-0.2949,-0.2953,-0.2953,-0.2953,-0.2955,-0.2954,-0.2952,-0.2952,-0.2939,-0.2953,-0.2953,-0.2953,-0.2953,-0.2953,-0.2889,-0.2894,-0.2898,-0.2904,-0.2907,-0.2912,-0.2916,-0.2919,-0.2925,-0.2931,-0.2932,-0.2939,-0.2944,-0.2953,-0.2957,-0.2962,-0.2961,-0.2963,-0.2964,-0.2964,-0.2964,-0.2951,-0.2964,-0.2964,-0.2964,-0.2964,-0.2964,0,-0.2902,-0.2904,-0.291,-0.2916,-0.292,-0.2919,-0.2924,-0.2928,-0.2934,-0.2939,-0.2944,-0.2951,-0.2957,-0.2961,-0.2968,-0.2971,-0.2972,-0.2973,-0.2973,-0.2973,-0.2965,-0.2963,-0.2973,-0.2973,-0.2973,-0.2973,-0.2973,-0.2973,-0.2909,-0.2916,-0.2917,-0.2926,-0.2929,-0.2936,-0.2938,-0.2942,-0.2945,-0.2954,-0.2959,-0.2961,-0.2965,-0.2972,-0.2977,-0.2978,-0.298,-0.2982,-0.2983,-0.2975,-0.2974,-0.2973,-0.2971,-0.2982,-0.2982,-0.299,-0.299,-0.299]},{"header":{"parameterUnit":"m.s-1","parameterCategory":1,"la1":30.2991,"la2":30.254,"lo1":-89.0895,"lo2":-89.0444,"dx":0.0017,"dy":0.0017,"nx":28,"ny":28,"refTime":"2022-11-03T21:00:00:Z","depth":0,"parameterNumber":3,"parameterNumberName":"V-component_of_WINDS"},"data":[0,0,0,0,0,0,0,0,0,0,0,0,0,0,0,0,0,0,0,0,0,0,0,0,0,0,0,0,0,0,0,0,0,0,0,0,0,0,0,0,0,0,0,0,0,0,0,0,0,0,0,0,0,0,0,0,0,0,1.8734,1.8735,0,1.884,1.8841,1.8842,1.8902,1.8902,1.8902,1.8902,1.9008,1.901,1.9013,0,0,0,0,0,0,0,0,0,0,0,0,0,1.8579,1.8581,1.8734,1.8735,1.8736,1.884,1.8841,1.8843,1.8902,1.8902,1.8902,1.8903,1.9007,1.901,1.9013,0,0,0,0,0,0,0,0,0,0,0,0,0,1.8661,1.8582,1.8733,1.8778,1.8783,1.884,1.8841,1.8843,1.8902,1.8902,1.8902,1.8903,1.9006,1.9009,1.9013,1.9032,0,0,1.9025,1.9027,0,0,0,0,0,0,0,0,1.8657,1.8667,1.877,1.8775,1.8781,1.8858,1.8825,1.8906,1.8902,1.8857,1.8902,1.8903,1.8957,1.8965,1.8984,1.9037,1.9041,1.9026,1.9028,1.903,1.9031,0,0,0,0,0,0,0,1.8651,1.8663,1.8776,1.8772,1.8778,1.8792,1.8804,1.8841,1.8904,1.8861,1.8865,1.8877,1.896,1.898,1.8987,1.9043,1.9026,1.9029,1.9031,1.9033,1.9117,1.9117,0,0,0,0,0,0,1.8638,1.8658,1.8772,1.8779,1.8719,1.8795,1.8808,1.8833,1.8904,1.8915,1.8877,1.888,1.8974,1.8983,1.8991,1.9019,1.903,1.9033,1.9036,1.9117,1.9117,1.9117,0,0,0,0,0,0,1.8635,1.8648,1.8768,1.872,1.8736,1.8797,1.8824,1.8835,1.8855,1.8916,1.8927,1.8886,1.8974,1.8986,1.9022,1.9023,1.9035,1.9039,1.9117,1.9117,1.9117,1.9073,0,0,0,0,0,0,1.863,1.8646,1.8655,1.8719,1.8738,1.8797,1.8825,1.8837,1.8862,1.8867,1.8928,1.8938,1.8975,1.9016,1.9026,1.9029,1.9042,1.9117,1.9117,1.9117,1.9074,1.9071,1.9068,0,0,0,0,0,1.8624,1.8637,1.8655,1.8668,1.875,1.8797,1.8808,1.8852,1.8862,1.8871,1.891,1.8936,1.9021,1.9019,1.9031,1.9035,1.9117,1.9117,1.9117,1.9076,1.9072,1.9068,0,0,0,0,0,0,1.8569,1.8646,1.8667,1.8701,1.8742,1.8807,1.882,1.8846,1.8884,1.8887,1.8938,1.8952,1.8983,1.9012,1.9008,1.9057,1.9072,1.9074,1.9037,1.9034,1.9031,1.9023,1.9045,0,0,0,0,0,1.8561,1.8594,1.8659,1.8683,1.8703,1.8758,1.878,1.881,1.8855,1.8872,1.8914,1.8955,1.8991,1.9014,1.905,1.9079,1.9093,1.9088,1.9084,1.9082,1.9083,1.9101,1.91,1.9116,1.9116,1.9116,0,0,1.8545,1.8591,1.8608,1.8673,1.8709,1.8742,1.8772,1.8805,1.8829,1.8877,1.8914,1.8946,1.8995,1.9028,1.9044,1.9054,1.9082,1.9081,1.9079,1.9082,1.9101,1.9099,1.9098,1.9115,1.9115,1.9115,0,0,1.8532,1.8569,1.8594,1.863,1.8684,1.8721,1.8726,1.8788,1.8811,1.885,1.8887,1.8916,1.8977,1.9011,1.9036,1.9037,1.9063,1.9047,1.9032,1.9049,1.9048,1.9047,1.9048,1.9048,1.9048,1.9048,1.9048,0,1.8504,1.8556,1.8603,1.8635,1.8662,1.8708,1.8734,1.8765,1.8828,1.8846,1.8855,1.8934,1.897,1.9012,1.9012,1.9031,1.9039,1.9041,1.9044,1.9044,1.9044,1.9046,1.9046,1.9046,1.9046,1.9047,1.9047,0,1.8519,1.8554,1.8568,1.8629,1.8658,1.8686,1.8737,1.8761,1.8789,1.8824,1.8863,1.8908,1.8955,1.8967,1.8994,1.9013,1.9017,1.9035,1.9051,1.9039,1.9042,1.9043,1.9043,1.9044,1.9044,1.9045,0,0,1.8474,1.8563,1.8567,1.8596,1.866,1.8687,1.8717,1.8765,1.8785,1.8826,1.8853,1.8904,1.8921,1.895,1.898,1.8995,1.8995,1.9011,1.9013,1.9008,1.902,1.9007,1.9007,1.9012,1.9012,1.9012,1.9016,0,1.8471,1.8529,1.8573,1.8614,1.8647,1.8692,1.8718,1.8759,1.8793,1.8825,1.8862,1.8898,1.8917,1.8935,1.8952,1.8991,1.8998,1.8991,1.9037,1.9038,1.9024,1.9008,1.8995,1.8996,1.9017,1.9017,1.9018,0,1.8475,1.8518,1.8562,1.8624,1.8639,1.8662,1.871,1.8741,1.8788,1.8812,1.8844,1.8877,1.891,1.8922,1.8969,1.8964,1.8985,1.9007,1.9008,1.9015,1.9028,1.9015,1.8997,1.8998,1.9019,1.9019,1.9019,0,1.844,1.8507,1.8543,1.8566,1.8638,1.8654,1.8684,1.8732,1.8759,1.88,1.8818,1.8861,1.8885,1.8918,1.8962,1.8967,1.9004,1.902,1.9024,1.9023,1.9031,1.903,1.9017,1.9043,1.9043,1.9043,1.9043,0,1.8432,1.8458,1.8528,1.855,1.858,1.863,1.8658,1.8693,1.8735,1.8764,1.8804,1.883,1.8886,1.8918,1.8952,1.8986,1.8996,1.9016,1.9025,1.9013,1.9011,1.9028,1.903,1.9043,1.9043,1.9043,1.9043,0,1.8397,1.8446,1.8488,1.8553,1.857,1.859,1.8645,1.8668,1.8704,1.874,1.8752,1.8808,1.8849,1.8895,1.895,1.8973,1.9005,1.9017,1.8989,1.8995,1.8997,1.8997,1.8996,1.8999,1.9021,1.902,1.902,0,1.839,1.8411,1.8479,1.8503,1.8533,1.8569,1.8597,1.8646,1.8673,1.873,1.8746,1.879,1.8828,1.8891,1.8936,1.8979,1.8993,1.899,1.9,1.8988,1.8994,1.8993,1.8996,1.8987,1.8987,1.8986,1.8986,0,1.8372,1.8395,1.8434,1.8482,1.8514,1.8553,1.8594,1.861,1.8668,1.8696,1.8739,1.8768,1.8826,1.8869,1.8918,1.8949,1.8977,1.8982,1.8986,1.8975,1.8958,1.8968,1.8983,1.8982,1.8983,1.8983,1.8983,1.8983,1.8352,1.8373,1.8425,1.8467,1.8504,1.8541,1.8566,1.8606,1.8643,1.8695,1.8722,1.8765,1.8812,1.8881,1.8911,1.8945,1.8954,1.8959,1.896,1.8961,1.8958,1.8952,1.8953,1.8954,1.8954,1.8954,1.8954,0,1.8337,1.8373,1.8411,1.8468,1.8501,1.8526,1.8573,1.8599,1.8636,1.8679,1.8716,1.8766,1.8808,1.8857,1.8903,1.892,1.8935,1.8931,1.893,1.8937,1.8946,1.894,1.8919,1.8919,1.8919,1.8919,1.8919,1.8919,1.8333,1.8371,1.8401,1.8457,1.8492,1.8536,1.8561,1.8595,1.863,1.8684,1.872,1.8753,1.8798,1.8847,1.8887,1.8901,1.8916,1.8908,1.8925,1.8933,1.8936,1.8939,1.8933,1.8911,1.8911,1.8914,1.8914,1.8914]}]]